RUBIN 9.1/RUBIN 9.2/PSLV

Satellite information

Favourite Embed

Satellite Type and Status

PAYLOADIN ORBIT

Key statistics

Satellite RUBIN 9.1/RUBIN 9.2/PSLV at a glance.

Uptime

5766

Days in orbit

Revolutions

≈ 14.4

Per day

Orbit

SSO

Sun Synchronous Orbit

Inclination

98.3

Latest

Satellite identification and parameters

Extended collection of information and parameters for RUBIN 9.1/RUBIN 9.2/PSLV.

Object identification

Identified? True

Debris? False

Object name: RUBIN 9.1/RUBIN 9.2/PSLV

International designator: 2009-051F

Object number (NORAD): 35936

Object ID (CCSDS): 35936

Country: GERMANY (GER)

Current information (Y/N): Y

RCS size: LARGE

Orbital parameters

Period: 99.771 minutes

Inclination: 98.2918 deg

SMA: 7125.737 km

Apoapsis: 786.353 km

Periapsis: 708.851 km

RAAN: 114.6351 deg

Eccentricy: 0.0054382

Argument of periapsis: 27.6276 deg

Mean anomaly: 332.7785 deg

Mean motion: 14.43304804 rev/day

Mean motion (dot): 0.00000173 rev/day2

B* drag term: 0.00006301 1/REarth

Two-line elements (TLE)

Creation date: July 6, 2025, 10:56 p.m.

Reference frame: TEME

Reference center: EARTH

Epoch: July 6, 2025, 6:04 p.m. UTC

TLE line 0: 0 RUBIN 9.1/RUBIN 9.2/PSLV

TLE line 1: 1 35936U 09051F 25187.75298283 .00000173 00000-0 63010-4 0 9993

TLE line 2: 2 35936 98.2918 114.6351 0054382 27.6276 332.7785 14.43304804830735

Live tracking on map

Real-time ground track for satellite RUBIN 9.1/RUBIN 9.2/PSLV.

In-orbit conjunctions

A list of the most updated potential collisions computed for object RUBIN 9.1/RUBIN 9.2/PSLV.

Target Orbit TCA Probability of collision Miss distance Type
COSMOS 2251 DEB LEO 2025-05-17 04:39:01 0.001227162 106.0 (m) DEBRIS
NOAA 16 DEB SSO 2025-05-05 08:47:48 0.0001245738 522.0 (m) DEBRIS
FENGYUN 1C DEB SSO 2024-10-26 05:44:10 0.0001462246 726.0 (m) DEBRIS
NOAA 16 DEB SSO 2024-10-05 20:51:30 0.0002075083 254.0 (m) DEBRIS
FENGYUN 1C DEB SSO 2024-09-11 05:16:21 0.0001168233 385.0 (m) DEBRIS

Associated space launch

Oceansat-2 is an earth observation and oceanography satellite operated by ISRO.

RUBIN 9.1/RUBIN 9.2/PSLV was lifted into orbit during the mission ‘PSLV | Oceansat-2’, on board a PSLV space rocket.

The launch took place on Sept. 23, 2009, 6:21 a.m. from Satish Dhawan Space Centre First Launch Pad.

For more information about the launch, click the button.

Launch to space PSLV | Oceansat-2
PSLV | Oceansat-2

Agency: N/A

Status: Launch Successful

Launch date: Sept. 23, 2009, 6:21 a.m. UTC

Rocket: PSLV

Launch pad: Satish Dhawan Space Centre First Launch Pad

Location: Satish Dhawan Space Centre, India

...

Latest news about this satellite

There are no fresh news available about this satellite. Check back as we update our databases every day.


Newsletter sign-up

Weekly statistics, charts and insights to help you stay on top of the space industry.